Simultaneous Nadir Overpasses (SNOs) Predictions

Prediction of SNOs between NOAA-19 and NPP Satellite Orbit:

Table of predicted SNOs for the next 14.0 days since TLE Epoch: 2/2/2017
Index Date (NOAA-19) Time (NOAA-19) Lat,Lon (NOAA-19) SZA (NOAA-19 ) Date (NPP) Time (NPP) Lat,Lon (NPP) SZA (NPP ) Distance(km) Time Diff (sec)
1 02/04/2017 05:26:00 80.90, 46.97 100.79 02/04/2017 05:27:11 80.90, 47.10 100.73 2.26 71
2 02/04/2017 06:17:02 -80.90,-145.62 79.25 02/04/2017 06:17:56 -80.91,-145.78 79.25 2.72 54
3 02/04/2017 07:08:01 80.91, 21.74 100.74 02/04/2017 07:08:41 80.90, 21.67 100.72 1.34 40
4 02/04/2017 07:59:04 -80.90,-171.23 79.26 02/04/2017 07:59:26 -80.91,-171.20 79.26 1.13 22
5 02/04/2017 08:50:03 80.90, -3.85 100.73 02/04/2017 08:50:11 80.90, -3.75 100.71 1.73 8
6 02/04/2017
